User: anonymous   Login
Location: Unspecified
(0.0000°N, 0.0000°E)
Time: 07:15:30
(UTC+00:00)
Language:

METEOR-M - Orbit

View from above orbital plane
View from above orbital plane
View from above satellite
View from above satellite

Ground track
Ground track

The orbit data is extracted from the following two-line orbital elements,

1 35865U 09049A   22225.86903527  .00000036  00000-0  35009-4 0  9992
2 35865  98.5324 194.4996 0003424  68.8643 291.2901 14.22349407669708
Epoch (UTC): 13 August 2022 20:51:24
Eccentricity: 0.0003424
inclination: 98.5324°
perigee height: 815 km
apogee height: 820 km
right ascension of ascending node: 194.4996°
argument of perigee: 68.8643°
revolutions per day: 14.22349407
mean anomaly at epoch: 291.2901°
orbit number at epoch: 66970

The dashed part of the orbit path shows where the satellite is in the earth's shadow,  

DLR